Location: Hope
(40.9110°N, 74.9680°W)
Time: 05:09:29
(UTC-05:00)

FORTE - Pass Details

Date: 10 December 2021
Orbit: 785 x 822 km, 70.0° (Epoch: 22 January)

Event Time Altitude Azimuth Distance (km) Brightness Sun altitude
Exits shadow 03:26:10 14° 113° (ESE) 2,106 9.7 -42.1°
Maximum altitude 03:27:17 14° 99° (E) 2,060 9.8 -41.9°
Drops below altitude 10° 03:30:03 10° 68° (ENE) 2,359 10.1 -41.4°
Sets 03:33:34 0° 45° (NE) 3,301 10.8 -40.7°
